| time (UTC) | temp F | wind direction | speed MPH | gust MPH | rain 1hr in | rain 24hr in | rain mn in | humidity % | barometer mb |
| 20260504110214 | 72 | 246 | 10.0 | 16.0 | 0.00 | 0.00 | 0.00 | 47 | 1007.5 |
| 20260504100211 | 70 | 223 | 11.0 | 18.0 | 0.00 | 0.00 | 0.00 | 48 | 1008.0 |
| 20260504081703 | 69 | 258 | 6.0 | 11.0 | 0.00 | 0.00 | 0.00 | 50 | 1007.4 |
| 20260504080202 | 69 | 228 | 5.0 | 8.0 | 0.00 | 0.00 | 0.00 | 48 | 1007.2 |
| 20260504070158 | 67 | 270 | 3.0 | 6.0 | 0.00 | 0.00 | 0.00 | 49 | 1007.0 |
| 20260504060154 | 62 | 286 | 4.0 | 9.0 | 0.00 | 0.00 | 0.00 | 53 | 1007.2 |
| 20260504050151 | 60 | 255 | 1.0 | 2.0 | 0.00 | 0.00 | 0.00 | 55 | 1006.8 |
| 20260504044650 | 60 | 228 | 0.0 | 3.0 | 0.00 | 0.00 | 0.00 | 55 | 1006.5 |
| 20260504043149 | 60 | 234 | 0.0 | 2.0 | 0.00 | 0.00 | 0.00 | 53 | 1006.7 |
| 20260504041648 | 60 | 234 | 2.0 | 8.0 | 0.00 | 0.00 | 0.00 | 52 | 1006.4 |
| 20260504040147 | 59 | 210 | 2.0 | 4.0 | 0.00 | 0.00 | 0.00 | 53 | 1006.4 |
| 20260504034646 | 58 | 108 | 1.0 | 4.0 | 0.00 | 0.00 | 0.00 | 53 | 1006.3 |
| 20260504033145 | 58 | 120 | 0.0 | 3.0 | 0.00 | 0.00 | 0.00 | 54 | 1006.3 |
| 20260504031644 | 58 | 168 | 0.0 | 2.0 | 0.00 | 0.00 | 0.00 | 53 | 1006.2 |
| 20260504030143 | 59 | 326 | 2.0 | 4.0 | 0.00 | 0.00 | 0.00 | 52 | 1006.1 |
| 20260504024642 | 60 | 240 | 3.0 | 9.0 | 0.00 | 0.00 | 0.00 | 50 | 1006.2 |
| 20260504023141 | 60 | 228 | 2.0 | 7.0 | 0.00 | 0.00 | 0.00 | 50 | 1006.0 |
| 20260504021641 | 60 | 343 | 2.0 | 6.0 | 0.00 | 0.00 | 0.00 | 51 | 1006.0 |
| 20260504020139 | 60 | 348 | 2.0 | 6.0 | 0.00 | 0.00 | 0.00 | 49 | 1005.9 |
| 20260504014638 | 60 | 198 | 2.0 | 6.0 | 0.00 | 0.00 | 0.00 | 50 | 1006.0 |
| 20260504013138 | 61 | 164 | 2.0 | 4.0 | 0.00 | 0.00 | 0.00 | 48 | 1005.9 |
| 20260504011637 | 61 | 120 | 2.0 | 6.0 | 0.00 | 0.00 | 0.00 | 48 | 1006.0 |
| 20260504010135 | 60 | 252 | 1.0 | 4.0 | 0.00 | 0.00 | 0.00 | 50 | 1006.1 |
| 20260504004634 | 61 | 180 | 1.0 | 3.0 | 0.00 | 0.00 | 0.00 | 49 | 1006.1 |
| 20260504003134 | 60 | 354 | 0.0 | 2.0 | 0.00 | 0.00 | 0.00 | 50 | 1006.0 |
| 20260504001633 | 60 | 180 | 0.0 | 4.0 | 0.00 | 0.00 | 0.00 | 49 | 1006.0 |
| 20260504000131 | 61 | 246 | 1.0 | 2.0 | 0.00 | 0.00 | 0.00 | 47 | 1006.1 |
| 20260503234631 | 62 | 292 | 0.0 | 2.0 | 0.00 | 0.00 | 0.00 | 46 | 1006.0 |
| 20260503233130 | 62 | 352 | 1.0 | 3.0 | 0.00 | 0.00 | 0.00 | 44 | 1006.0 |
| 20260503231629 | 63 | 94 | 1.0 | 4.0 | 0.00 | 0.00 | 0.00 | 43 | 1006.0 |
| 20260503230128 | 63 | 318 | 1.0 | 4.0 | 0.00 | 0.00 | 0.00 | 43 | 1006.0 |
| 20260503224627 | 64 | 60 | 2.0 | 4.0 | 0.00 | 0.00 | 0.00 | 42 | 1006.0 |
| 20260503223126 | 64 | 108 | 2.0 | 5.0 | 0.00 | 0.00 | 0.00 | 41 | 1005.9 |
| 20260503221625 | 65 | 162 | 2.0 | 4.0 | 0.00 | 0.00 | 0.00 | 39 | 1006.0 |
| 20260503220124 | 66 | 222 | 3.0 | 5.0 | 0.00 | 0.00 | 0.00 | 37 | 1006.0 |
| 20260503214623 | 67 | 162 | 3.0 | 6.0 | 0.00 | 0.00 | 0.00 | 35 | 1006.0 |
| 20260503213122 | 67 | 172 | 3.0 | 4.0 | 0.00 | 0.00 | 0.00 | 35 | 1006.1 |
| 20260503211621 | 67 | 191 | 2.0 | 3.0 | 0.00 | 0.00 | 0.00 | 34 | 1006.2 |
| 20260503210120 | 67 | 173 | 2.0 | 3.0 | 0.00 | 0.00 | 0.00 | 33 | 1006.3 |
| 20260503204619 | 68 | 180 | 2.0 | 3.0 | 0.00 | 0.00 | 0.00 | 32 | 1006.4 |
| 20260503203118 | 69 | 178 | 2.0 | 3.0 | 0.00 | 0.00 | 0.00 | 32 | 1006.4 |
| 20260503201617 | 69 | 207 | 2.0 | 3.0 | 0.00 | 0.00 | 0.00 | 31 | 1006.5 |
| 20260503200116 | 70 | 180 | 2.0 | 3.0 | 0.00 | 0.00 | 0.00 | 31 | 1006.5 |
| 20260503194615 | 70 | 178 | 2.0 | 3.0 | 0.00 | 0.00 | 0.00 | 31 | 1006.6 |
| 20260503193114 | 70 | 185 | 2.0 | 3.0 | 0.00 | 0.00 | 0.00 | 31 | 1006.6 |
| 20260503191613 | 71 | 183 | 2.0 | 3.0 | 0.00 | 0.00 | 0.00 | 31 | 1006.6 |
| 20260503190113 | 72 | 174 | 2.0 | 3.0 | 0.00 | 0.00 | 0.00 | 32 | 1006.6 |
| 20260503184611 | 72 | 184 | 2.0 | 2.0 | 0.00 | 0.00 | 0.00 | 32 | 1006.6 |
| 20260503183110 | 74 | 168 | 2.0 | 3.0 | 0.00 | 0.00 | 0.00 | 30 | 1006.4 |
| 20260503181610 | 75 | 172 | 2.0 | 2.0 | 0.00 | 0.00 | 0.00 | 29 | 1006.3 |
| 20260503180109 | 77 | 186 | 3.0 | 5.0 | 0.00 | 0.00 | 0.00 | 27 | 1006.2 |
| 20260503174608 | 79 | 185 | 3.0 | 9.0 | 0.00 | 0.00 | 0.00 | 25 | 1006.0 |
| 20260503173107 | 79 | 176 | 3.0 | 5.0 | 0.00 | 0.00 | 0.00 | 25 | 1006.1 |
| 20260503171606 | 79 | 197 | 3.0 | 5.0 | 0.00 | 0.00 | 0.00 | 26 | 1006.0 |
| 20260503170105 | 82 | 147 | 3.0 | 7.0 | 0.00 | 0.00 | 0.00 | 24 | 1006.1 |